CW4113 Weather Reports


time (UTC)temp
C
wind
direction
speed
KPH
gust
KPH
rain 1hr
cm
rain 24hr
cm
rain mn
cm
humidity
%
barometer
mb
20260505122306 17 220 3.2 16.1 0.00 0.00 0.00 60 1011.0
20260505121304 17 181 6.4 12.9 0.00 0.00 0.00 60 1010.9
20260505120805 17 181 8.0 19.3 0.00 0.00 0.00 62 1010.9
20260505115804 17 193 4.8 9.7 0.00 0.00 0.00 62 1011.0
20260505115305 16 342 4.8 12.9 0.00 0.00 0.00 63 1010.9
20260505114805 16 249 3.2 4.8 0.00 0.00 0.00 63 1011.0
20260505114305 16 329 3.2 8.0 0.00 0.00 0.00 63 1011.1
20260505113305 16 5 3.2 12.9 0.00 0.00 0.00 64 1010.8
20260505112805 16 248 3.2 19.3 0.00 0.00 0.00 64 1010.6
20260505111805 16 221 3.2 4.8 0.00 0.00 0.00 64 1010.6
20260505111305 16 323 3.2 8.0 0.00 0.00 0.00 65 1010.7
20260505110804 15 297 6.4 19.3 0.00 0.00 0.00 65 1010.7
20260505110304 15 244 6.4 19.3 0.00 0.00 0.00 65 1010.5
20260505100804 15 197 8.0 19.3 0.00 0.00 0.00 66 1010.0
20260505100304 15 219 9.7 19.3 0.00 0.00 0.00 66 1009.9
20260505095804 15 205 11.3 20.9 0.00 0.00 0.00 65 1009.9
20260505095305 15 189 9.7 25.7 0.00 0.00 0.00 65 1009.8
20260505094804 15 193 9.7 19.3 0.00 0.00 0.00 65 1009.8
20260505094304 15 149 8.0 19.3 0.00 0.00 0.00 64 1009.9
20260505093805 15 209 6.4 19.3 0.00 0.00 0.00 65 1010.0
20260505093304 15 233 9.7 19.3 0.00 0.00 0.00 64 1009.9
20260505092805 15 225 4.8 14.5 0.00 0.00 0.00 64 1009.9
20260505092305 15 203 6.4 14.5 0.00 0.00 0.00 64 1010.0
20260505091804 15 218 4.8 11.3 0.00 0.00 0.00 64 1009.9
20260505091304 15 184 6.4 11.3 0.00 0.00 0.00 65 1010.0
20260505090805 15 207 1.6 4.8 0.00 0.00 0.00 65 1010.0
20260505090304 15 330 1.6 4.8 0.00 0.00 0.00 65 1010.0
20260505085804 15 330 1.6 4.8 0.00 0.00 0.00 64 1010.0
20260505085305 15 330 3.2 4.8 0.00 0.00 0.00 64 1009.9
20260505084805 15 188 1.6 8.0 0.00 0.00 0.00 64 1010.0
20260505083305 16 268 3.2 4.8 0.00 0.00 0.00 62 1009.8
20260505082804 16 313 0.0 3.2 0.00 0.00 0.00 62 1009.8
20260505081804 16 0 3.2 8.0 0.00 0.00 0.00 61 1009.7
20260505080805 16 268 3.2 9.7 0.00 0.00 0.00 60 1009.7
20260505075304 16 193 4.8 16.1 0.00 0.00 0.00 61 1009.7
20260505074804 16 234 3.2 4.8 0.00 0.00 0.00 61 1009.7
20260505074304 16 329 1.6 3.2 0.00 0.00 0.00 61 1009.5
20260505073304 16 236 1.6 4.8 0.00 0.00 0.00 61 1009.6
20260505072305 16 186 3.2 9.7 0.00 0.00 0.00 60 1009.7
20260505071804 16 234 6.4 12.9 0.00 0.00 0.00 60 1009.8
20260505070804 16 176 4.8 16.1 0.00 0.00 0.00 60 1009.8
20260505070305 16 172 4.8 14.5 0.00 0.00 0.00 59 1009.8
20260505065804 16 160 9.7 19.3 0.00 0.00 0.00 59 1009.8
20260505065304 16 201 8.0 19.3 0.00 0.00 0.00 59 1009.8
20260505064805 16 219 6.4 12.9 0.00 0.00 0.00 59 1009.8
20260505063804 16 177 6.4 19.3 0.00 0.00 0.00 58 1009.9
20260505062804 16 205 8.0 22.5 0.00 0.00 0.00 58 1009.9
20260505061804 16 187 12.9 22.5 0.00 0.00 0.00 57 1009.6
20260505061305 16 164 9.7 20.9 0.00 0.00 0.00 57 1009.8
20260505060804 16 198 11.3 22.5 0.00 0.00 0.00 57 1009.8
20260505060304 16 177 8.0 14.5 0.00 0.00 0.00 57 1009.8
20260505055805 16 211 9.7 14.5 0.00 0.00 0.00 56 1009.8
20260505055305 16 184 11.3 24.1 0.00 0.00 0.00 56 1009.7
20260505054804 16 201 12.9 22.5 0.00 0.00 0.00 56 1009.7
20260505053804 16 199 8.0 16.1 0.00 0.00 0.00 56 1009.6
20260505053304 17 209 11.3 19.3 0.00 0.00 0.00 56 1009.6
20260505052804 16 231 9.7 19.3 0.00 0.00 0.00 56 1009.6
20260505051804 16 191 8.0 25.7 0.00 0.00 0.00 56 1009.7
20260505051304 16 206 9.7 19.3 0.00 0.00 0.00 55 1009.7
20260505050804 16 192 6.4 19.3 0.00 0.00 0.00 55 1009.7
20260505050304 16 200 9.7 20.9 0.00 0.00 0.00 54 1009.7
20260505041304 17 241 8.0 22.5 0.00 0.00 0.00 50 1009.7
20260505040818 17 197 14.5 22.5 0.00 0.00 0.00 50 1009.6
20260505040304 17 192 8.0 16.1 0.00 0.00 0.00 49 1009.6
20260505035804 17 218 8.0 19.3 0.00 0.00 0.00 49 1009.5
20260505035304 17 206 9.7 22.5 0.00 0.00 0.00 49 1009.5
20260505034804 17 210 8.0 24.1 0.00 0.00 0.00 49 1009.4
20260505034304 17 208 9.7 24.1 0.00 0.00 0.00 48 1009.3
20260505033804 17 192 8.0 24.1 0.00 0.00 0.00 48 1009.3
20260505033304 18 163 4.8 19.3 0.00 0.00 0.00 48 1009.2
20260505032803 18 179 4.8 25.7 0.00 0.00 0.00 48 1009.2
20260505032304 18 202 8.0 19.3 0.00 0.00 0.00 47 1009.2
20260505031804 17 185 11.3 24.1 0.00 0.00 0.00 48 1009.2
20260505031304 17 146 9.7 19.3 0.00 0.00 0.00 48 1009.3
20260505030804 17 149 4.8 14.5 0.00 0.00 0.00 47 1009.2
20260505030303 17 166 8.0 19.3 0.00 0.00 0.00 48 1009.1
20260505025804 17 198 3.2 25.7 0.00 0.00 0.00 47 1009.1
20260505025305 17 157 8.0 20.9 0.00 0.00 0.00 47 1009.2
20260505024804 17 192 6.4 22.5 0.00 0.00 0.00 47 1009.4
20260505022804 17 187 3.2 9.7 0.00 0.00 0.00 46 1009.5
20260505022304 17 129 6.4 14.5 0.00 0.00 0.00 46 1009.5
20260505021804 17 168 4.8 16.1 0.00 0.00 0.00 46 1009.5
20260505021304 18 133 8.0 19.3 0.00 0.00 0.00 45 1009.6
20260505020803 18 140 9.7 19.3 0.00 0.00 0.00 46 1009.7
20260505015804 17 150 8.0 22.5 0.00 0.00 0.00 46 1009.7
20260505015304 17 130 6.4 12.9 0.00 0.00 0.00 46 1009.7
20260505014806 17 136 3.2 9.7 0.00 0.00 0.00 46 1009.8
20260505014307 18 134 6.4 14.5 0.00 0.00 0.00 46 1009.7
20260505013806 18 120 8.0 14.5 0.00 0.00 0.00 45 1009.7
20260505013306 18 179 8.0 20.9 0.00 0.00 0.00 45 1009.7
20260505011806 18 142 9.7 19.3 0.00 0.00 0.00 45 1009.5
20260505011306 18 181 4.8 19.3 0.00 0.00 0.00 44 1009.5
20260505010806 18 152 9.7 19.3 0.00 0.00 0.00 44 1009.5
20260505010306 18 145 11.3 25.7 0.00 0.00 0.00 44 1009.4
20260505005806 18 167 4.8 16.1 0.00 0.00 0.00 44 1009.4
20260505005305 18 191 9.7 19.3 0.00 0.00 0.00 44 1009.3
20260505002806 19 143 8.0 20.9 0.00 0.00 0.00 43 1009.2
20260505002306 18 155 6.4 22.5 0.00 0.00 0.00 43 1009.1
20260505001805 18 174 4.8 16.1 0.00 0.00 0.00 44 1009.2
20260505000805 19 141 4.8 11.3 0.00 0.00 0.00 42 1009.1
20260505000306 20 149 9.7 24.1 0.00 0.00 0.00 41 1009.1
20260504235805 20 174 8.0 14.5 0.00 0.00 0.00 41 1009.0
20260504235305 20 160 4.8 14.5 0.00 0.00 0.00 42 1009.0
20260504234306 20 157 4.8 16.1 0.00 0.00 0.00 41 1008.9
20260504233805 20 194 9.7 19.3 0.00 0.00 0.00 40 1008.9
20260504232806 20 156 12.9 22.5 0.00 0.00 0.00 40 1008.8
20260504232305 20 205 9.7 16.1 0.00 0.00 0.00 40 1008.9
20260504231805 20 161 8.0 14.5 0.00 0.00 0.00 40 1008.8
20260504231305 20 174 9.7 19.3 0.00 0.00 0.00 39 1008.8
20260504230806 20 146 9.7 20.9 0.00 0.00 0.00 39 1008.8
20260504230306 20 162 8.0 24.1 0.00 0.00 0.00 39 1008.8
20260504225805 21 161 14.5 24.1 0.00 0.00 0.00 38 1008.8
20260504225306 21 169 12.9 27.4 0.00 0.00 0.00 38 1008.8
20260504224806 21 171 16.1 27.4 0.00 0.00 0.00 37 1008.8
20260504223805 21 161 9.7 19.3 0.00 0.00 0.00 39 1008.8
20260504222805 21 201 11.3 32.2 0.00 0.00 0.00 38 1008.8
20260504222305 21 159 6.4 20.9 0.00 0.00 0.00 37 1008.7
20260504221806 22 132 9.7 19.3 0.00 0.00 0.00 36 1008.7
20260504220806 22 202 12.9 32.2 0.00 0.00 0.00 35 1008.7
20260504220305 22 218 6.4 16.1 0.00 0.00 0.00 36 1008.7
20260504215806 22 228 8.0 16.1 0.00 0.00 0.00 34 1008.8
20260504215306 22 232 4.8 16.1 0.00 0.00 0.00 36 1008.8
20260504214805 22 214 8.0 20.9 0.00 0.00 0.00 33 1008.9
20260504214305 22 252 11.3 24.1 0.00 0.00 0.00 34 1008.9
20260504213805 22 247 8.0 20.9 0.00 0.00 0.00 36 1008.7
20260504213305 22 200 8.0 14.5 0.00 0.00 0.00 36 1008.9
20260504212805 22 240 9.7 25.7 0.00 0.00 0.00 35 1008.9
20260504212305 22 233 12.9 20.9 0.00 0.00 0.00 35 1008.9
20260504211806 22 211 9.7 24.1 0.00 0.00 0.00 34 1008.9
20260504211305 22 250 6.4 20.9 0.00 0.00 0.00 33 1008.9
20260504210306 22 305 3.2 9.7 0.00 0.00 0.00 34 1008.9
20260504205305 22 212 11.3 29.0 0.00 0.00 0.00 35 1009.0
20260504204806 22 273 12.9 27.4 0.00 0.00 0.00 34 1009.2
20260504204306 22 163 12.9 22.5 0.00 0.00 0.00 35 1009.1
20260504203806 22 181 9.7 20.9 0.00 0.00 0.00 34 1009.1
20260504203305 22 263 11.3 22.5 0.00 0.00 0.00 34 1009.1
20260504202806 22 266 11.3 19.3 0.00 0.00 0.00 34 1009.2
20260504202305 22 238 16.1 27.4 0.00 0.00 0.00 35 1009.2
20260504201805 22 220 16.1 29.0 0.00 0.00 0.00 36 1009.3
20260504201305 22 225 16.1 32.2 0.00 0.00 0.00 34 1009.4
20260504200805 22 242 11.3 25.7 0.00 0.00 0.00 33 1009.5
20260504200305 22 250 11.3 24.1 0.00 0.00 0.00 35 1009.6
20260504195806 22 280 14.5 35.4 0.00 0.00 0.00 34 1009.7
20260504195305 23 267 9.7 19.3 0.00 0.00 0.00 36 1009.7
20260504194805 23 240 8.0 22.5 0.00 0.00 0.00 34 1009.8
20260504193305 22 240 14.5 25.7 0.00 0.00 0.00 34 1009.9
20260504192806 22 275 11.3 24.1 0.00 0.00 0.00 35 1010.0
20260504192305 22 209 8.0 12.9 0.00 0.00 0.00 35 1010.0
20260504191805 22 266 9.7 27.4 0.00 0.00 0.00 35 1010.1
20260504191305 22 259 11.3 27.4 0.00 0.00 0.00 38 1010.2
20260504190805 22 306 8.0 19.3 0.00 0.00 0.00 37 1010.2
20260504190305 22 181 11.3 22.5 0.00 0.00 0.00 35 1010.2
20260504185806 22 239 16.1 32.2 0.00 0.00 0.00 34 1010.3
20260504185305 22 242 14.5 25.7 0.00 0.00 0.00 35 1010.3
20260504184805 22 227 9.7 25.7 0.00 0.00 0.00 38 1010.3
20260504184305 22 180 6.4 19.3 0.00 0.00 0.00 37 1010.4
20260504183805 22 284 12.9 19.3 0.00 0.00 0.00 35 1010.5
20260504183305 22 273 8.0 19.3 0.00 0.00 0.00 38 1010.4
20260504182805 22 255 12.9 22.5 0.00 0.00 0.00 37 1010.6
20260504182306 22 201 11.3 20.9 0.00 0.00 0.00 37 1010.7
20260504181805 22 185 8.0 19.3 0.00 0.00 0.00 37 1010.7
20260504181306 22 248 4.8 20.9 0.00 0.00 0.00 40 1010.6
20260504180806 21 244 14.5 27.4 0.00 0.00 0.00 36 1010.8
20260504175805 21 173 14.5 24.1 0.00 0.00 0.00 41 1011.0
20260504175306 21 229 12.9 25.7 0.00 0.00 0.00 38 1011.0
20260504174805 21 246 12.9 25.7 0.00 0.00 0.00 38 1011.1
20260504174305 21 257 14.5 24.1 0.00 0.00 0.00 37 1011.1
20260504173805 21 268 11.3 25.7 0.00 0.00 0.00 36 1011.1
20260504172805 21 270 11.3 22.5 0.00 0.00 0.00 38 1011.2
20260504171805 21 260 17.7 32.2 0.00 0.00 0.00 37 1011.4
20260504171305 21 220 14.5 32.2 0.00 0.00 0.00 38 1011.5
20260504170805 21 144 6.4 14.5 0.00 0.00 0.00 40 1011.5
20260504170304 21 251 9.7 24.1 0.00 0.00 0.00 37 1011.6
20260504160306 19 228 14.5 24.1 0.00 0.00 0.00 37 1012.5
20260504150805 18 269 9.7 24.1 0.00 0.00 0.00 41 1013.2
20260504150304 18 205 11.3 20.9 0.00 0.00 0.00 41 1013.3
20260504141304 16 207 9.7 24.1 0.00 0.00 0.00 44 1013.4
20260504140805 16 208 8.0 16.1 0.00 0.00 0.00 49 1013.5
20260504140305 16 217 12.9 22.5 0.00 0.00 0.00 45 1013.4
20260504130305 12 260 9.7 19.3 0.00 0.00 0.00 50 1013.8